Wind_Speed
26 24 24 25 27 28 27 25 28 33 38 37 39 40 36 33 29 25 22 22 22 20 17 19 21 25 21 20 19 18 19 15 13 24 27 27 24 27 30 35 31 35 33 36 38 30 34
25 26 25 26 27 29 31 25 31 32 35 42 39 41 37 33 29 25 22 21 21 18 16 18 22 22 18 17 19 15 20 11 15 22 27 30 21 24 30 32 33 39 33 35 33 26 34
33 29 28 28 27 29 31 32 28 27 34 34 42 42 40 34 29 24 22 20 20 15 14 17 23 15 16 14 15 11 15 18 9 21 26 30 25 22 26 26 30 12 30 28 41 16 26
38 38 32 32 31 27 31 31 31 26 31 31 37 41 42 35 29 23 21 19 18 13 12 17 17 18 14 14 12 7 9 14 11 17 23 25 32 23 19 27 27 21 21 26 20 36 28
42 42 42 37 32 35 30 32 33 29 29 34 33 37 40 37 29 23 21 17 15 11 9 17 13 19 9 12 7 4 8 10 11 12 19 20 19 20 24 22 21 30 13 25 11 23 14
43 45 47 45 39 29 37 34 33 25 27 31 29 37 38 37 29 22 19 15 12 8 7 14 11 12 13 8 4 4 7 5 2 7 11 18 20 22 20 23 20 23 20 17 21 24 33
36 45 46 48 47 39 32 36 35 32 26 33 28 32 42 37 29 21 17 14 11 6 5 11 10 12 8 5 4 5 6 5 3 7 11 12 15 22 20 21 19 20 21 25 22 16 23
35 37 42 47 47 47 37 35 35 36 26 31 33 28 43 36 29 21 16 13 9 5 1 9 10 9 4 2 1 6 5 4 5 7 11 8 4 20 14 18 19 22 23 17 14 25 13
40 34 38 44 45 47 44 33 30 31 31 29 31 26 40 34 29 20 16 12 9 4 0 7 7 7 4 3 2 4 5 4 5 5 6 6 6 26 21 17 18 19 22 21 19 14 14
41 40 38 36 40 46 47 37 30 32 30 29 29 28 36 33 27 20 15 12 7 3 1 2 4 6 3 2 1 2 2 4 6 6 13 2 10 18 19 12 12 17 21 16 19 23 9
37 37 40 39 35 42 42 39 38 34 31 34 29 27 32 31 26 18 14 10 5 3 2 1 3 3 4 2 1 3 2 3 7 13 10 5 5 10 9 20 12 15 20 20 18 16 11
40 40 40 43 41 41 45 43 42 31 35 30 30 25 30 30 22 17 12 8 5 1 3 4 4 1 1 3 1 1 3 5 8 13 12 11 14 10 9 13 10 9 20 16 12 9 1
44 48 45 42 44 38 49 47 48 31 37 31 32 23 31 28 20 15 11 7 5 5 5 5 4 4 3 5 4 4 2 9 10 8 10 15 15 9 7 12 14 17 22 4 3 2 3
45 47 48 48 43 38 48 46 56 24 38 31 34 21 32 26 19 15 11 9 7 6 7 7 6 5 3 4 6 7 7 13 12 5 7 4 6 10 9 9 8 21 14 6 4 4 3
47 48 42 41 35 37 39 42 60 20 31 30 34 19 31 25 18 16 12 13 3 8 10 13 11 6 5 3 4 7 11 6 8 13 4 3 4 9 14 10 14 18 9 4 5 4 3
44 43 37 30 37 37 36 39 47 29 32 33 26 24 28 24 18 18 15 12 9 9 12 15 7 7 4 6 6 9 8 11 14 9 5 3 8 14 13 9 8 7 11 3 1 3 3
42 38 37 42 37 31 37 35 37 25 37 37 30 29 26 23 21 20 20 11 13 14 16 13 6 8 6 8 6 6 6 12 14 10 7 9 6 12 13 5 8 9 10 2 3 2 3
41 35 36 40 40 22 19 33 26 30 42 36 29 28 20 26 23 23 20 13 15 19 17 10 10 9 9 8 8 4 6 7 15 10 12 6 7 10 12 7 9 8 11 10 3 2 1
33 32 35 40 32 6 17 13 34 44 40 26 31 35 20 24 24 23 12 16 16 21 19 14 12 12 12 12 4 6 6 10 17 13 8 6 3 7 2 9 14 14 12 14 12 4 3
27 27 34 31 9 18 38 9 28 35 37 29 39 25 27 26 24 15 18 19 18 21 18 15 15 13 15 13 7 8 7 10 15 14 11 8 11 6 9 2 8 19 18 16 17 8 5
23 22 30 18 4 36 34 18 27 27 35 36 33 23 22 17 28 20 21 19 21 22 18 17 14 15 16 13 10 7 6 7 13 13 12 7 10 7 5 2 3 5 10 20 24 25 15
18 24 22 17 5 22 17 21 31 38 31 41 30 23 24 13 18 23 25 23 23 21 20 21 16 17 16 12 10 9 7 7 10 15 12 11 5 4 4 6 7 8 10 13 18 26 28
16 21 20 10 11 13 10 26 27 35 28 32 32 26 15 15 19 27 25 22 23 20 19 19 20 19 14 12 11 9 7 9 7 11 14 9 7 6 3 6 8 12 15 18 19 18 17
15 18 17 9 9 26 14 20 26 35 30 25 27 21 16 14 18 21 21 21 22 20 16 22 20 19 15 11 11 9 8 6 7 5 7 7 9 6 3 3 0 3 3 3 6 9 18
15 17 17 2 18 23 24 17 25 27 27 24 22 21 15 12 16 25 21 24 23 20 17 17 18 14 16 15 13 9 9 7 8 9 8 9 9 5 5 8 8 7 5 5 4 5 6
14 12 13 7 14 19 21 27 32 25 21 22 21 19 16 11 18 24 22 23 25 23 20 20 18 17 16 15 13 7 7 8 8 7 13 13 11 10 8 3 4 1 4 2 2 6 7
10 15 10 17 24 15 14 21 26 27 18 22 21 16 16 13 14 22 23 24 22 23 21 21 22 20 17 16 16 8 6 9 7 9 13 14 13 15 10 5 5 7 9 9 7 8 9
10 17 9 16 19 19 22 27 33 22 22 23 21 16 16 14 11 19 20 22 20 21 21 22 21 23 19 16 14 9 8 12 8 8 8 13 12 11 11 7 10 12 12 11 8 8 8
14 12 11 30 27 10 40 23 29 26 22 20 18 15 15 14 8 17 19 19 18 18 19 15 18 16 18 17 14 12 9 14 12 9 12 10 9 6 7 6 9 8 9 10 9 9 9
Wind_Direction
309 303 301 303 306 308 311 324 325 322 326 338 342 343 338 335 331 327 325 326 322 317 314 309 317 325 326 322 319 309 317 285 249 212 202 202 200 193 195 198 204 207 204 203 205 198 194
292 295 297 295 299 301 304 307 314 321 328 330 336 339 337 333 330 328 324 326 321 317 314 311 323 328 331 324 318 322 323 282 272 207 192 195 192 185 192 197 202 205 199 209 204 188 190
291 288 291 290 291 293 297 303 306 311 318 328 331 334 336 332 328 328 325 327 320 318 316 317 327 333 332 330 326 344 330 335 151 190 193 194 190 181 197 193 201 195 224 205 227 196 183
291 289 282 284 285 288 292 294 300 308 301 318 325 326 334 331 327 326 326 326 321 320 319 326 334 334 331 334 341 348 4 354 78 157 176 200 179 183 181 188 199 196 208 199 188 213 194
286 285 284 280 281 290 287 288 291 301 294 308 323 323 330 329 326 324 324 326 320 321 321 339 343 341 345 338 347 16 29 5 108 165 172 176 188 170 176 184 183 206 175 195 179 218 222
284 280 281 280 277 278 286 290 288 294 291 300 311 319 324 328 325 323 322 324 318 324 316 348 351 351 352 353 27 64 50 52 77 188 164 169 189 186 177 183 183 189 197 182 204 204 214
287 274 276 279 279 272 277 281 288 284 287 286 300 323 317 328 322 320 320 319 313 314 296 351 352 9 12 22 56 94 63 56 88 195 149 159 204 200 178 188 189 197 194 214 202 204 207
293 280 263 276 276 273 262 275 274 282 279 287 287 313 308 324 319 317 316 311 307 304 300 2 28 31 27 13 63 137 103 80 98 157 199 161 192 205 177 178 185 194 195 206 201 220 233
298 288 272 270 266 270 267 261 260 275 275 281 285 304 304 319 316 311 311 306 305 294 289 27 38 36 36 11 195 161 121 103 113 131 155 205 161 186 199 160 165 165 183 194 201 183 201
297 292 288 275 264 262 259 245 253 261 272 276 277 296 297 312 310 305 304 300 298 267 208 37 36 22 22 30 55 176 59 109 94 122 120 301 122 160 194 186 156 150 177 183 183 180 186
298 292 292 287 282 271 250 240 246 249 265 264 272 291 297 304 302 294 293 294 269 225 32 77 87 59 65 47 163 208 121 95 107 145 143 150 121 155 161 191 168 156 176 175 180 177 160
305 303 302 296 292 288 262 229 234 238 256 255 264 277 290 300 292 285 282 275 229 200 257 176 173 113 24 17 172 159 162 167 128 135 123 138 158 170 154 162 191 119 166 163 169 168 153
303 306 301 289 282 274 258 228 226 236 244 243 258 263 277 292 282 276 266 250 212 215 186 168 158 166 60 16 45 168 140 132 131 139 111 122 156 159 162 180 177 156 144 109 159 125 204
298 301 296 292 282 271 261 235 223 225 235 243 251 259 262 285 269 262 250 215 221 202 176 152 163 123 73 99 81 97 115 125 137 153 120 117 141 157 185 123 150 142 166 145 143 160 177
298 299 295 293 284 274 267 245 222 222 223 226 241 243 257 278 259 246 230 214 203 208 178 160 161 159 160 171 154 103 137 107 155 144 93 98 105 155 151 113 153 163 126 107 115 119 130
299 301 298 288 290 274 261 243 223 221 209 226 224 233 257 265 248 235 218 225 208 183 167 161 151 166 163 171 157 141 158 148 146 140 116 151 126 157 160 138 152 170 166 190 84 127 173
306 300 300 292 295 283 256 236 194 228 201 220 215 229 246 252 238 225 221 214 201 176 175 163 180 162 167 186 169 144 150 163 164 155 155 123 160 172 171 174 162 160 178 159 106 65 146
305 298 295 295 296 325 202 201 209 222 198 206 214 233 232 240 219 221 221 203 192 182 181 174 172 163 181 195 174 157 157 163 178 168 152 150 133 151 194 208 196 198 206 210 165 181 109
299 295 299 300 313 336 229 218 195 187 195 202 204 218 221 229 217 219 200 186 180 184 183 185 184 185 181 177 177 205 169 172 173 177 193 181 134 112 201 233 219 216 209 208 216 222 208
296 295 305 312 339 223 210 247 181 188 190 195 199 196 212 220 220 208 192 187 181 179 188 190 190 186 186 181 204 199 188 178 183 184 184 166 160 164 187 196 207 218 223 216 220 237 234
290 300 308 282 339 204 227 226 208 197 198 199 204 208 223 223 212 193 186 188 182 177 183 182 187 183 187 189 177 205 192 187 183 182 174 167 168 161 160 186 207 212 221 227 225 229 227
290 303 302 276 175 218 252 223 189 182 199 201 198 206 208 204 179 186 184 187 187 181 182 182 179 181 178 176 178 199 185 187 171 185 188 189 149 202 229 242 253 250 245 233 235 238 242
287 290 289 300 225 255 229 168 175 192 204 193 205 199 187 193 184 188 189 183 183 187 178 180 177 186 182 181 188 189 194 181 186 204 214 223 213 214 231 254 270 280 259 250 254 256 260
281 273 269 271 230 246 227 173 186 194 202 178 203 196 196 191 188 188 186 186 183 182 189 178 180 191 188 176 171 171 171 186 177 197 189 212 215 204 216 182 257 240 230 256 281 270 253
278 282 263 116 247 232 223 173 192 193 177 190 192 198 193 191 184 187 187 188 184 184 183 188 187 181 186 187 172 169 183 198 205 212 212 205 206 198 196 206 279 287 278 273 283 289 266
285 260 259 237 262 215 181 165 183 185 165 183 187 195 199 193 184 186 187 189 189 187 183 189 186 184 181 187 168 179 191 200 193 199 212 210 216 219 199 210 216 193 156 161 308 278 266
301 274 205 195 211 175 164 175 189 173 179 188 195 190 189 186 192 187 189 189 190 192 193 190 190 187 191 191 187 181 186 188 192 188 195 199 214 223 213 226 259 220 232 247 249 249 263
301 260 199 198 198 154 148 174 182 174 184 191 196 192 193 185 191 191 193 198 197 194 192 189 185 200 194 193 196 184 192 195 207 196 197 200 202 215 219 220 245 224 223 241 273 283 272
295 277 201 206 194 178 167 192 179 180 187 192 192 187 189 191 204 185 188 190 191 190 189 194 193 203 198 193 199 197 188 194 204 197 203 202 209 216 211 231 217 212 228 244 257 253 255
Height
3144 3141 3138 3136 3133 3130 3127 3124 3119 3116 3111 3107 3102 3096 3090 3084 3079 3074 3069 3065 3062 3059 3056 3053 3050 3045 3041 3038 3034 3029 3026 3022 3021 3023 3027 3033 3036 3042 3047 3052 3058 3064 3065 3074 3079 3084 3090
3135 3134 3133 3131 3128 3126 3123 3119 3116 3112 3106 3103 3099 3093 3087 3081 3076 3071 3065 3061 3059 3056 3053 3050 3046 3041 3038 3036 3032 3027 3021 3019 3017 3019 3024 3030 3034 3041 3045 3050 3056 3060 3065 3072 3076 3080 3087
3130 3127 3125 3124 3123 3121 3118 3114 3111 3108 3104 3099 3095 3091 3084 3077 3073 3067 3062 3058 3056 3053 3050 3047 3043 3038 3037 3035 3030 3026 3022 3015 3012 3016 3022 3029 3033 3039 3044 3050 3054 3059 3058 3067 3069 3075 3085
3123 3120 3117 3116 3115 3114 3112 3108 3106 3104 3100 3095 3091 3087 3082 3075 3070 3065 3060 3055 3054 3051 3048 3045 3040 3036 3034 3033 3028 3026 3023 3019 3017 3018 3025 3029 3034 3040 3042 3047 3053 3059 3064 3064 3065 3074 3080
3114 3110 3108 3107 3107 3105 3104 3102 3100 3098 3095 3091 3086 3083 3078 3072 3067 3062 3058 3053 3051 3049 3046 3042 3038 3035 3034 3031 3029 3027 3026 3023 3022 3024 3023 3030 3032 3035 3043 3048 3052 3056 3057 3061 3065 3071 3073
3105 3102 3100 3097 3097 3098 3096 3095 3093 3092 3090 3086 3082 3081 3074 3069 3065 3059 3056 3051 3049 3047 3045 3040 3037 3038 3034 3031 3029 3028 3028 3026 3025 3024 3026 3031 3034 3038 3043 3048 3050 3053 3059 3065 3070 3074 3079
3094 3090 3089 3088 3087 3087 3088 3087 3087 3086 3084 3081 3077 3075 3072 3066 3062 3056 3054 3049 3050 3047 3043 3040 3039 3035 3034 3032 3030 3029 3029 3029 3028 3029 3031 3034 3038 3040 3045 3048 3051 3054 3059 3067 3071 3076 3080
3082 3079 3078 3076 3076 3076 3077 3079 3079 3079 3077 3074 3072 3068 3069 3063 3059 3054 3051 3047 3045 3045 3043 3039 3038 3036 3035 3033 3032 3030 3031 3032 3031 3032 3034 3038 3039 3040 3044 3049 3052 3056 3061 3066 3070 3075 3081
3069 3068 3066 3064 3064 3064 3066 3070 3068 3070 3070 3068 3067 3063 3064 3059 3056 3052 3048 3045 3043 3042 3040 3039 3038 3037 3036 3035 3033 3031 3032 3032 3031 3032 3036 3038 3040 3041 3045 3048 3052 3056 3059 3062 3070 3076 3079
3057 3054 3053 3053 3051 3050 3052 3058 3059 3061 3062 3060 3060 3059 3058 3054 3054 3049 3045 3043 3042 3040 3039 3040 3039 3039 3038 3035 3035 3033 3033 3035 3033 3034 3037 3041 3037 3044 3047 3050 3054 3059 3064 3067 3070 3076 3077
3043 3041 3038 3038 3039 3033 3036 3042 3048 3050 3052 3054 3054 3053 3052 3051 3049 3046 3044 3041 3040 3040 3042 3040 3038 3038 3036 3037 3036 3035 3035 3034 3035 3036 3040 3043 3042 3047 3049 3053 3056 3060 3064 3068 3071 3074 3076
3025 3022 3022 3020 3020 3023 3019 3025 3033 3039 3042 3046 3046 3046 3046 3047 3044 3043 3041 3039 3040 3041 3038 3037 3036 3037 3036 3034 3035 3034 3035 3036 3036 3038 3040 3042 3045 3048 3051 3054 3057 3057 3062 3065 3068 3071 3073
3014 3009 3005 3005 3004 3005 3002 3010 3018 3026 3032 3038 3039 3039 3042 3042 3040 3039 3038 3038 3040 3036 3037 3036 3036 3036 3036 3035 3034 3034 3035 3036 3038 3041 3041 3044 3047 3048 3050 3053 3056 3059 3062 3068 3071 3073 3074
3003 2998 2993 2988 2987 2988 2986 2994 3001 3012 3020 3027 3032 3032 3035 3037 3034 3036 3035 3037 3036 3032 3031 3033 3035 3036 3036 3036 3036 3036 3037 3037 3039 3041 3042 3044 3050 3049 3051 3053 3056 3060 3064 3065 3070 3072 3073
2990 2985 2980 2977 2974 2973 2973 2978 2985 3000 3008 3017 3024 3024 3030 3030 3030 3032 3033 3032 3029 3029 3029 3031 3034 3035 3036 3036 3038 3037 3039 3039 3039 3043 3044 3044 3047 3050 3052 3054 3058 3060 3064 3067 3068 3070 3072
2978 2973 2968 2965 2964 2961 2961 2966 2973 2988 2998 3007 3014 3019 3023 3024 3026 3028 3029 3027 3026 3027 3027 3029 3032 3033 3035 3036 3038 3039 3040 3042 3042 3045 3046 3046 3048 3050 3053 3056 3058 3060 3065 3067 3066 3071 3072
2966 2961 2957 2955 2951 2950 2950 2955 2968 2977 2988 2999 3005 3010 3016 3018 3022 3023 3021 3023 3023 3025 3027 3030 3032 3033 3035 3036 3037 3038 3041 3043 3044 3046 3047 3048 3050 3055 3055 3057 3059 3062 3063 3064 3065 3067 3068
2955 2952 2948 2945 2939 2936 2941 2952 2955 2965 2978 2992 2996 3004 3010 3013 3016 3015 3016 3018 3021 3022 3025 3028 3030 3033 3035 3036 3037 3039 3040 3041 3044 3047 3048 3049 3050 3053 3056 3057 3059 3061 3063 3064 3066 3069 3068
2945 2943 2939 2935 2926 2931 2938 2941 2945 2953 2971 2984 2990 2999 3004 3007 3008 3009 3013 3015 3017 3019 3023 3026 3029 3032 3033 3036 3039 3039 3040 3042 3044 3046 3049 3051 3052 3055 3058 3060 3058 3059 3061 3063 3065 3066 3067
2937 2935 2932 2926 2925 2922 2925 2933 2940 2952 2968 2977 2985 2994 2998 3000 3002 3005 3010 3012 3014 3018 3022 3024 3027 3030 3033 3037 3037 3038 3039 3041 3043 3046 3049 3050 3052 3053 3056 3056 3057 3057 3060 3062 3064 3067 3068
2929 2928 2927 2924 2919 2921 2927 2934 2940 2952 2964 2974 2979 2987 2991 2991 2995 3001 3006 3009 3012 3014 3019 3023 3025 3029 3032 3035 3037 3037 3039 3040 3043 3046 3047 3050 3051 3053 3054 3055 3056 3057 3058 3060 3061 3063 3065
2923 2920 2923 2923 2920 2921 2923 2928 2937 2948 2960 2968 2976 2983 2987 2989 2992 2999 3002 3004 3009 3012 3017 3020 3024 3028 3031 3033 3036 3037 3039 3039 3041 3044 3046 3047 3050 3052 3053 3054 3054 3054 3055 3057 3057 3059 3061
2919 2920 2918 2915 2916 2918 2922 2925 2935 2948 2958 2964 2974 2981 2985 2987 2990 2994 2997 3002 3006 3011 3016 3020 3023 3026 3030 3034 3036 3038 3039 3040 3042 3044 3045 3048 3049 3050 3052 3052 3053 3053 3052 3052 3053 3055 3056
2917 2917 2918 2915 2913 2916 2921 2929 2937 2948 2955 2964 2975 2980 2983 2985 2989 2993 2997 3001 3005 3010 3014 3018 3022 3026 3031 3033 3036 3038 3039 3041 3042 3043 3045 3047 3049 3051 3050 3051 3054 3049 3049 3050 3050 3051 3051
2914 2914 2913 2908 2910 2916 2920 2927 2938 2948 2956 2966 2972 2978 2981 2984 2989 2993 2996 2999 3003 3008 3013 3017 3021 3026 3029 3032 3036 3038 3040 3041 3042 3043 3044 3046 3046 3047 3048 3047 3047 3046 3048 3049 3048 3048 3048
2908 2909 2910 2910 2911 2917 2922 2929 2938 2948 2956 2964 2970 2975 2980 2984 2987 2991 2994 2999 3001 3006 3011 3016 3020 3024 3027 3030 3034 3036 3037 3038 3040 3041 3043 3044 3046 3047 3045 3047 3048 3047 3046 3046 3046 3046 3045
2912 2912 2912 2911 2914 2917 2923 2930 2939 2950 2956 2964 2968 2973 2978 2982 2985 2989 2993 2996 3001 3004 3009 3013 3017 3022 3025 3027 3031 3034 3035 3036 3036 3037 3039 3041 3042 3043 3045 3047 3046 3045 3043 3042 3045 3047 3043
2906 2910 2910 2912 2918 2920 2924 2934 2943 2950 2958 2963 2968 2973 2979 2981 2984 2987 2992 2995 2999 3003 3007 3011 3017 3019 3022 3026 3030 3031 3032 3034 3035 3036 3036 3038 3040 3040 3043 3045 3043 3039 3040 3044 3045 3042 3042
2909 2910 2910 2914 2918 2924 2928 2936 2945 2954 2958 2963 2969 2973 2977 2981 2984 2986 2990 2994 2998 3002 3006 3009 3013 3014 3018 3022 3025 3028 3029 3031 3032 3034 3035 3037 3038 3038 3040 3038 3036 3038 3038 3039 3038 3036 3037